Location: Lafig�re
(44.4503°N, 4.0357°E)
Time: 09:58:10
(UTC+00:00)

Tiros 1 - Pass Details

Date: 28 January 2021
Orbit: 630 x 664 km, 48.4° (Epoch: 07 March)

Event Time Altitude Azimuth Distance (km) Brightness Sun altitude
Rises 17:54:37 0° 266° (W) 2,933 12.5 -12.1°
Reaches altitude 10° 17:56:59 10° 270° (W) 2,020 11.1 -12.5°
Maximum altitude 18:01:34 57° 350° (N) 746 7.4 -13.3°
Enters shadow 18:04:32 21° 63° (ENE) 1,428 8.3 -13.8°
